This is the latest recevied weather packets stored in our database for station/object SP3VSS-13. If no packets are shown the sender has not sent any weather packets the latest 10 day(s).
| Time | Temp. | Humidity | Pressure | Rain* | Wind** | Luminosity | Snow |
|---|---|---|---|---|---|---|---|
| 1788367433 | 21.11° C | 58% | 1006.3 hPa | - | - | - | - |
| 1788366532 | 21.11° C | 58% | 1006.3 hPa | - | - | - | - |
| 1788365630 | 21.11° C | 58% | 1006.3 hPa | - | - | - | - |
| 1788364729 | 21.11° C | 58% | 1006.4 hPa | - | - | - | - |
| 1788363829 | 21.11° C | 58% | 1006.4 hPa | - | - | - | - |
| 1788362928 | 21.11° C | 59% | 1006.5 hPa | - | - | - | - |
| 1788362027 | 21.11° C | 60% | 1006.5 hPa | - | - | - | - |
| 1788361125 | 21.11° C | 60% | 1006.7 hPa | - | - | - | - |
| 1788360224 | 21.11° C | 60% | 1006.7 hPa | - | - | - | - |
| 1788359324 | 21.11° C | 60% | 1006.7 hPa | - | - | - | - |
| 1788358423 | 21.11° C | 60% | 1006.8 hPa | - | - | - | - |
| 1788357530 | 21.67° C | 61% | 1006.8 hPa | - | - | - | - |
| 1788356621 | 21.67° C | 59% | 1006.8 hPa | - | - | - | - |
| 1788355720 | 21.67° C | 59% | 1006.9 hPa | - | - | - | - |
| 1788354819 | 21.67° C | 57% | 1006.9 hPa | - | - | - | - |
| 1788353918 | 21.67° C | 60% | 1007 hPa | - | - | - | - |
| 1788353017 | 21.67° C | 59% | 1007 hPa | - | - | - | - |
| 1788352116 | 21.67° C | 61% | 1007.1 hPa | - | - | - | - |
| 1788351215 | 21.67° C | 60% | 1007.3 hPa | - | - | - | - |
| 1788350314 | 22.22° C | 61% | 1007.4 hPa | - | - | - | - |
| 1788349413 | 22.22° C | 61% | 1007.5 hPa | - | - | - | - |
| 1788348512 | 21.67° C | 61% | 1007.3 hPa | - | - | - | - |
| 1788347611 | 21.67° C | 59% | 1007.6 hPa | - | - | - | - |
| 1788346710 | 21.67° C | 59% | 1007.7 hPa | - | - | - | - |
| 1788345809 | 22.78° C | 60% | 1007.6 hPa | - | - | - | - |
* Rain since midnight (hover to see other rain measurements)
** Current wind speed in m/s (hover to see current wind gust speed)